Location: Carabito
(9.8355°N, 67.9249°W)
Time: 12:10:34
(UTC+00:00)

Cosmos 2366 rocket - Pass Details

Date: 23 May 2024
Orbit: 953 x 997 km, 82.9° (Epoch: 24 June)

Event Time Altitude Azimuth Distance (km) Brightness Sun altitude
Exits shadow 08:48:02 25° 208° (SSW) 1,902 5.1 -19.3°
Maximum altitude 08:51:40 53° 274° (W) 1,207 4.1 -18.5°
Drops below altitude 10° 08:57:49 10° 350° (N) 2,757 6.6 -17.2°
Sets 09:00:25 0° 355° (N) 3,706 7.3 -16.6°
